Home   Weather   Bogota   Past weeks

Flag for Colombia Past Weather in Bogota, Colombia — Yesterday and Last 2 Weeks

Now
63 °F

Thunderstorms. Scattered clouds.


Feels Like: 63 °F
Forecast: N/A
Wind: 9 mph from West

Location: Bogota / Eldorado

Current Time: Feb 21, 2017 at 6:55:22 pm

Latest Report: Feb 21, 2017 at 6:00 pm


Visibility: 5 mi

Pressure: 30.26 "Hg (22.23 "Hg at 2618m altitude)

Humidity: 68%

Dew Point: 52 °F

Location of BogotaLocation

Past Weather in Bogota — Graph

°F

Bogota Temperature Yesterday

Maximum temperature yesterday: 70 °F (at 12:00 pm)
Minimum temperature yesterday: 50 °F (at 11:00 pm)
Average temperature yesterday: 58 °F

High & Low Weather Summary for the Past Weeks

 TemperatureHumidityPressure
High75 °F (Feb 8, 1:00 pm)100% (Feb 8, 5:30 am)30.44 "Hg (Feb 8, 5:30 am)
Low36 °F (Feb 8, 5:30 am)14% (Feb 7, 4:00 pm)30.20 "Hg (Feb 8, 4:00 pm)
Average56 °F73%30.32 "Hg
* Reported Feb 6 5:00 pm — Feb 21 5:00 pm, Bogota, Weather by CustomWeather, © 2017

Note: Actual official high and low records may vary slightly from our data, if they occured in-between our weather recording intervals... More about our weather records

Advertising

Bogota Weather History for the Previous 24 Hours

Scroll right to see more
 ConditionsComfort  
Time TempWeatherWind HumidityBarometerVisibility
5:00 pm
Tue, Feb 21
66 °FScattered clouds.14 mph64%30.24 "Hg5 mi
4:00 pm68 °FScattered clouds.14 mph56%30.24 "Hg6 mi
3:00 pm70 °FPartly sunny.15 mph53%30.26 "Hg6 mi
2:00 pm70 °FPartly sunny.17 mph53%30.29 "Hg6 mi
1:00 pm70 °FPartly sunny.14 mph53%30.31 "Hg6 mi
12:00 pm68 °FScattered clouds.12 mph56%30.33 "HgN/A
11:00 am68 °FScattered clouds.3 mph53%30.37 "Hg5 mi
10:00 am64 °FScattered clouds.2 mph60%30.39 "Hg5 mi
9:00 am61 °FHaze.2 mph68%30.39 "Hg5 mi
8:00 am54 °FHaze.6 mph88%30.38 "Hg2 mi
7:00 am50 °FFog.5 mph94%30.35 "Hg3 mi
6:00 am45 °FFog.2 mph100%30.33 "Hg3 mi
5:30 am45 °FFog.3 mph100%30.33 "Hg3 mi
5:00 am46 °FFog.3 mph93%30.31 "Hg3 mi
4:00 am48 °FPassing clouds.2 mph100%30.31 "Hg4 mi
3:00 am50 °FFog.2 mph94%30.33 "Hg3 mi
2:00 am50 °FFog.2 mph94%30.34 "Hg3 mi
1:00 am50 °FFog.3 mph94%30.35 "Hg3 mi
12:00 am52 °FFog.2 mph94%30.37 "Hg3 mi
11:00 pm
Mon, Feb 20
50 °FPassing clouds.3 mph94%30.38 "HgN/A
10:00 pm54 °FPassing clouds.6 mph88%30.37 "HgN/A
9:00 pm55 °FPassing clouds.7 mph82%30.36 "HgN/A
8:00 pm55 °FPassing clouds.7 mph82%30.33 "HgN/A
7:00 pm61 °FPassing clouds.5 mph72%30.31 "HgN/A
6:00 pm61 °FScattered clouds.6 mph68%30.29 "HgN/A
Weather by CustomWeather, © 2017

See weather overviewHow to use our weather pages